Regional Weather Roundup
Issued by NWS

Home | Current Version | Previous Version | Text Only | Print | Product List | Glossary Off
Versions: 1 2 3 4 5 6 7 8 9 10 11 12 13 14 15 16 17 18 19 20 21 22 23 24 25 26 27 28 29 30 31 32 33 34 35 36 37 38 39 40 41 42 43 44 45 46 47 48 49 50

000
ASUS43 KBIS 302010
RWRND

NORTH DAKOTA REGIONAL WEATHER ROUNDUP
NATIONAL WEATHER SERVICE BISMARCK ND
300 PM CDT MON MAR 30 2015

NOTE: "FAIR" INDICATES FEW OR NO CLOUDS BELOW 12,000 FEET WITH NO
SIGNIFICANT WEATHER AND/OR OBSTRUCTIONS TO VISIBILITY.


NDZ001>003-009>011-017-302100-
NORTHWEST NORTH DAKOTA

CITY           SKY/WX    TMP DP  RH WIND       PRES   REMARKS
WILLISTON      MOSUNNY   67  31  26 W23G30    29.95F
MINOT          FAIR      63  35  35 NW29G37   29.89R
MINOT AFB      FAIR      63  38  39 NW30G36   29.86F
$$

NDZ018>021-031>035-040>046-302100-
SOUTHWEST NORTH DAKOTA

CITY           SKY/WX    TMP DP  RH WIND       PRES   REMARKS
BISMARCK       MOSUNNY   66  34  30 NW25G31   29.91R
DICKINSON      SUNNY     66  26  22 NW21G29   29.95F
GARRISON         N/A     65  35  33 NW30G36   29.90R
HETTINGER ARPT SUNNY     67  29  24 NW22G30   29.99S
$$

NDZ004>008-012>016-024-026-027-054-302100-
NORTHEAST NORTH DAKOTA

CITY           SKY/WX    TMP DP  RH WIND       PRES   REMARKS
GRAND FORKS    PTSUNNY   48  39  71 NE12      29.85F
GRND FRKS AFB  FAIR      49  36  61 E8        29.86R
DEVILS LAKE    FAIR      55  39  54 N9        29.84S
$$

NDZ022-023-025-028>030-036>039-047>053-302100-
SOUTHEAST NORTH DAKOTA

CITY           SKY/WX    TMP DP  RH WIND       PRES   REMARKS
FARGO          FAIR      61  34  36 NE5       29.80F
JAMESTOWN      FAIR      64  37  36 NW29      29.81R
$$



USA.gov is the U.S. government's official web portal to all federal, state and local government web resources and services.